sat.trackr.live / text

‹ back to catalog

STARLINK-6134

NORAD 57110 · 2023-090K

PAYLOAD ACTIVE UNKNOWN

§ Identity

Operator
Country
US
Launch date
2023-06-23
Launch site
AFETR
Launch vehicle
Mass (kg)
RCS (m²)

Purposes: comms

External: N2YO · Heavens-Above · Gunter

§ Orbital elements

Epoch: 2026-09-20T11:31:04.351008Z

Period
94.27 min
Inclination
43.0015°
Eccentricity
0.0001182
Mean motion
15.27579154 rev/d
Perigee alt
482.2 km
Apogee alt
483.9 km
Semi-major
6,861.2 km
B*
5.3509e-5
RAAN
261.4379°
Arg perigee
271.7188°
Mean anomaly
88.3528°
Rev number
18,012

§ Raw data

STARLINK-61341 57110U 23090K   26263.47991147  .00001211  00000+0  53509-4 0  99992 57110  43.0015 261.4379 0001182 271.7188  88.3528 15.27579154180129

JSON: /api/v1/satellites/57110 · /tle

For live sub-satellite position, see the globe view (requires WebGL).

§ Visibility from observer

Set your observer location to see the next 7 days of passes ≥ 10°. The values pass through the URL so the page stays shareable.

No JS? Fill the form by hand. The geolocation button needs JavaScript.